GW2454 Weather Reports


time (UTC)temp
C
wind
direction
speed
KPH
gust
KPH
rain 1hr
cm
rain 24hr
cm
rain mn
cm
humidity
%
barometer
mb
20260505041613 22 186 8.0 9.7 0.00 0.00 0.00 79 1007.5
20260505041110 22 237 6.4 8.0 0.00 0.00 0.00 79 1007.7
20260505040608 22 223 4.8 4.8 0.00 0.00 0.00 79 1007.5
20260505040105 22 162 4.8 8.0 0.00 0.00 0.00 79 1008.2
20260505035601 22 195 4.8 4.8 0.00 0.00 0.00 79 1007.8
20260505035057 22 156 6.4 8.0 0.00 0.00 0.00 79 1007.9
20260505034554 22 225 4.8 4.8 0.00 0.00 0.00 79 1007.8
20260505034051 22 264 9.7 11.3 0.00 0.00 0.00 78 1007.8
20260505033548 22 164 3.2 3.2 0.00 0.00 0.00 78 1008.0
20260505033046 22 199 4.8 8.0 0.00 0.00 0.00 78 1008.2
20260505032544 22 210 6.4 8.0 0.00 0.00 0.00 78 1008.4
20260505032040 23 202 8.0 11.3 0.00 0.00 0.00 78 1008.2
20260505031537 23 185 6.4 9.7 0.00 0.00 0.00 78 1008.4
20260505031033 23 172 3.2 3.2 0.00 0.00 0.00 78 1008.2
20260505030531 23 188 4.8 8.0 0.00 0.00 0.00 77 1008.1
20260505030026 23 212 4.8 4.8 0.00 0.00 0.00 77 1008.0
20260505025522 23 195 9.7 12.9 0.00 0.00 0.00 77 1007.8
20260505025022 23 198 6.4 9.7 0.00 0.00 0.00 77 1007.7
20260505024518 23 211 8.0 9.7 0.00 0.00 0.00 77 1007.7
20260505024015 23 255 11.3 14.5 0.00 0.00 0.00 76 1007.6
20260505023512 23 217 8.0 9.7 0.00 0.00 0.00 76 1007.7
20260505023010 23 201 4.8 8.0 0.00 0.00 0.00 75 1007.7
20260505022507 23 220 9.7 12.9 0.00 0.00 0.00 75 1007.7
20260505022004 23 203 4.8 4.8 0.00 0.00 0.00 75 1007.6
20260505021501 23 196 4.8 4.8 0.00 0.00 0.00 75 1007.7
20260505020956 23 193 6.4 8.0 0.00 0.00 0.00 74 1007.7
20260505020452 23 215 6.4 8.0 0.00 0.00 0.00 74 1007.6
20260505015949 23 222 6.4 8.0 0.00 0.00 0.00 73 1007.6
20260505015446 24 206 6.4 8.0 0.00 0.00 0.00 73 1007.5
20260505014943 24 253 8.0 11.3 0.00 0.00 0.00 73 1007.3
20260505014440 24 221 9.7 11.3 0.00 0.00 0.00 73 1007.5
20260505013937 24 232 4.8 4.8 0.00 0.00 0.00 73 1007.5
20260505013434 24 231 11.3 14.5 0.00 0.00 0.00 73 1007.3
20260505012932 24 204 6.4 8.0 0.00 0.00 0.00 73 1007.4
20260505012430 24 212 4.8 8.0 0.00 0.00 0.00 72 1007.3
20260505011926 23 233 6.4 9.7 0.00 0.00 0.00 73 1007.1
20260505011422 23 219 4.8 4.8 0.00 0.00 0.00 73 1007.2
20260505010919 24 232 4.8 4.8 0.00 0.00 0.00 72 1007.2
20260505010415 24 202 4.8 4.8 0.00 0.00 0.00 72 1007.3
20260505005911 24 229 4.8 8.0 0.00 0.00 0.00 71 1007.2
20260505005408 24 198 4.8 4.8 0.00 0.00 0.00 71 1007.2
20260505004905 24 199 4.8 4.8 0.00 0.00 0.00 70 1007.0
20260505004401 25 200 8.0 9.7 0.00 0.00 0.00 70 1007.3
20260505003859 25 222 4.8 8.0 0.00 0.00 0.00 70 1007.1
20260505003356 25 221 6.4 8.0 0.00 0.00 0.00 69 1007.4
20260505002852 25 214 3.2 3.2 0.00 0.00 0.00 69 1007.1
20260505002349 25 213 4.8 4.8 0.00 0.00 0.00 68 1007.4
20260505001847 25 241 9.7 12.9 0.00 0.00 0.00 68 1007.3
20260505001344 25 229 4.8 4.8 0.00 0.00 0.00 68 1007.3
20260505000841 25 224 11.3 14.5 0.00 0.00 0.00 67 1007.2
20260505000339 25 235 8.0 12.9 0.00 0.00 0.00 67 1007.1
20260504235835 25 246 3.2 3.2 0.00 0.00 0.00 67 1007.2
20260504235333 25 182 3.2 3.2 0.00 0.00 0.00 67 1007.4
20260504234829 25 216 4.8 4.8 0.00 0.00 0.00 67 1007.4
20260504234327 26 186 9.7 14.5 0.00 0.00 0.00 66 1007.4
20260504233823 26 221 6.4 8.0 0.00 0.00 0.00 66 1007.4
20260504233319 26 225 4.8 8.0 0.00 0.00 0.00 66 1007.2
20260504232816 26 151 6.4 9.7 0.00 0.00 0.00 65 1007.3
20260504232313 26 218 8.0 9.7 0.00 0.00 0.00 65 1007.1
20260504231810 26 210 11.3 12.9 0.00 0.00 0.00 64 1007.4
20260504231306 26 228 4.8 4.8 0.00 0.00 0.00 64 1007.5
20260504230802 26 231 4.8 4.8 0.00 0.00 0.00 64 1007.8
20260504230300 26 234 11.3 14.5 0.00 0.00 0.00 63 1007.7
20260504225759 26 151 6.4 9.7 0.00 0.00 0.00 62 1007.7
20260504225255 26 220 6.4 9.7 0.00 0.00 0.00 63 1007.7
20260504224752 26 210 6.4 8.0 0.00 0.00 0.00 62 1007.7
20260504224249 26 203 6.4 9.7 0.00 0.00 0.00 61 1007.8
20260504223746 26 231 8.0 8.0 0.00 0.00 0.00 61 1007.8
20260504223241 26 201 8.0 11.3 0.00 0.00 0.00 61 1007.8
20260504222738 27 222 9.7 11.3 0.00 0.00 0.00 60 1008.0
20260504222235 27 156 8.0 9.7 0.00 0.00 0.00 60 1007.8
20260504221733 27 246 8.0 9.7 0.00 0.00 0.00 60 1007.9
20260504221229 27 217 4.8 9.7 0.00 0.00 0.00 59 1008.1
20260504220725 27 220 4.8 4.8 0.00 0.00 0.00 59 1008.1
20260504220218 27 235 9.7 11.3 0.00 0.00 0.00 58 1008.2
20260504215714 27 182 4.8 8.0 0.00 0.00 0.00 59 1007.8
20260504215212 27 239 6.4 8.0 0.00 0.00 0.00 59 1008.1
20260504214707 27 205 6.4 8.0 0.00 0.00 0.00 58 1008.2
20260504214204 27 225 9.7 11.3 0.00 0.00 0.00 57 1008.5
20260504213701 27 195 3.2 3.2 0.00 0.00 0.00 57 1008.4
20260504213157 27 228 6.4 8.0 0.00 0.00 0.00 57 1008.4
20260504212654 27 244 4.8 4.8 0.00 0.00 0.00 57 1008.6
20260504212150 27 207 4.8 4.8 0.00 0.00 0.00 57 1008.6
20260504211648 28 223 4.8 4.8 0.00 0.00 0.00 57 1008.6
20260504211144 28 228 4.8 4.8 0.00 0.00 0.00 55 1008.7
20260504210642 28 205 6.4 8.0 0.00 0.00 0.00 54 1009.0
20260504210138 28 226 3.2 4.8 0.00 0.00 0.00 55 1008.8
20260504205636 27 214 6.4 8.0 0.00 0.00 0.00 56 1009.0
20260504205133 28 213 6.4 9.7 0.00 0.00 0.00 57 1008.9
20260504204631 28 261 8.0 11.3 0.00 0.00 0.00 53 1009.2
20260504204130 28 233 8.0 8.0 0.00 0.00 0.00 53 1009.5
20260504203628 28 268 6.4 9.7 0.00 0.00 0.00 55 1009.2
20260504203125 28 217 8.0 9.7 0.00 0.00 0.00 54 1009.5
20260504202620 28 237 4.8 8.0 0.00 0.00 0.00 56 1009.5
20260504202117 28 213 6.4 11.3 0.00 0.00 0.00 55 1009.6
20260504201614 27 242 3.2 3.2 0.00 0.00 0.00 56 1009.8
20260504201112 27 90 1.6 1.6 0.00 0.00 0.00 55 1009.6
20260504200608 28 248 4.8 8.0 0.00 0.00 0.00 54 1009.9
20260504200105 28 232 4.8 8.0 0.00 0.00 0.00 55 1010.0
20260504195601 28 235 3.2 4.8 0.00 0.00 0.00 55 1010.1
20260504195057 27 239 8.0 12.9 0.00 0.00 0.00 55 1010.3
20260504194554 27 268 8.0 11.3 0.00 0.00 0.00 55 1010.2
20260504194049 27 356 3.2 4.8 0.00 0.00 0.00 55 1010.3
20260504193546 27 198 6.4 9.7 0.00 0.00 0.00 56 1010.4
20260504193045 27 245 8.0 9.7 0.00 0.00 0.00 56 1010.3
20260504192543 28 201 6.4 8.0 0.00 0.00 0.00 57 1010.4
20260504192041 27 226 6.4 8.0 0.00 0.00 0.00 56 1010.5
20260504191538 27 216 4.8 4.8 0.00 0.00 0.00 57 1010.5
20260504191034 27 260 8.0 9.7 0.00 0.00 0.00 57 1011.1
20260504190531 26 216 8.0 9.7 0.00 0.00 0.00 56 1010.8
20260504190027 27 227 4.8 8.0 0.00 0.00 0.00 55 1010.8
20260504185524 27 274 8.0 9.7 0.00 0.00 0.00 54 1011.0
20260504185020 27 228 4.8 4.8 0.00 0.00 0.00 56 1010.8
20260504184516 27 179 6.4 8.0 0.00 0.00 0.00 59 1011.1
20260504184012 27 236 8.0 9.7 0.00 0.00 0.00 56 1011.0
20260504183509 26 186 1.6 3.2 0.00 0.00 0.00 56 1011.1
20260504183007 27 222 6.4 8.0 0.00 0.00 0.00 55 1011.4
20260504182503 27 214 8.0 11.3 0.00 0.00 0.00 56 1011.3
20260504182001 26 239 6.4 8.0 0.00 0.00 0.00 56 1011.3
20260504181458 26 246 11.3 12.9 0.00 0.00 0.00 58 1011.5
20260504180956 26 241 6.4 11.3 0.00 0.00 0.00 59 1011.3
20260504180455 26 220 4.8 8.0 0.00 0.00 0.00 59 1011.6
20260504175953 26 211 6.4 8.0 0.00 0.00 0.00 57 1011.5
20260504175450 26 242 6.4 9.7 0.00 0.00 0.00 57 1011.5
20260504174947 26 227 3.2 3.2 0.00 0.00 0.00 58 1011.5
20260504174445 26 234 6.4 9.7 0.00 0.00 0.00 57 1011.7
20260504173942 26 235 8.0 14.5 0.00 0.00 0.00 58 1011.8
20260504173438 25 222 4.8 4.8 0.00 0.00 0.00 58 1012.0
20260504172936 26 251 6.4 8.0 0.00 0.00 0.00 59 1011.9
20260504172431 26 254 4.8 4.8 0.00 0.00 0.00 59 1012.0
20260504171928 25 173 3.2 3.2 0.00 0.00 0.00 58 1011.9
20260504171426 26 223 8.0 9.7 0.00 0.00 0.00 58 1012.2
20260504170923 25 253 8.0 12.9 0.00 0.00 0.00 59 1012.1
20260504170419 25 218 4.8 8.0 0.00 0.00 0.00 59 1012.1
20260504160338 24 223 4.8 4.8 0.00 0.00 0.00 62 1013.3
20260504150802 23 214 9.7 11.3 0.00 0.00 0.00 63 1013.1
20260504150259 22 233 6.4 9.7 0.00 0.00 0.00 65 1013.3
20260504141229 21 207 3.2 4.8 0.00 0.00 0.00 65 1013.4
20260504140725 21 232 6.4 8.0 0.00 0.00 0.00 67 1013.3
20260504140221 21 183 4.8 4.8 0.00 0.00 0.00 67 1013.2
20260504130644 17 189 1.6 1.6 0.00 0.00 0.00 79 1013.1
20260504130140 17 170 1.6 3.2 0.00 0.00 0.00 82 1013.1
20260504120104 13 88 0.0 0.0 0.00 0.00 0.00 94 1012.8
20260504110531 13 86 0.0 0.0 0.00 0.00 0.00 93 1012.6
20260504100454 13 88 0.0 0.0 0.00 0.00 0.00 91 1012.9
20260504081847 15 204 0.0 0.0 0.00 0.00 0.00 87 1013.2
20260504081343 15 204 0.0 0.0 0.00 0.00 0.00 86 1013.6
20260504080839 15 204 0.0 0.0 0.00 0.00 0.00 86 1013.6
20260504080337 15 204 0.0 0.0 0.00 0.00 0.00 85 1013.7
20260504070304 15 204 0.0 0.0 0.00 0.00 0.00 83 1014.5
20260504060224 15 204 0.0 0.0 0.00 0.00 0.00 77 1015.2
20260504050652 17 204 0.0 0.0 0.00 0.00 0.00 76 1015.3
20260504050149 17 204 0.0 0.0 0.00 0.00 0.00 74 1015.5